DateTime,F1_A11,F1_S11,BsB_S11,BsG_S11,BsR_S11,BbsB_S11,BbsG_S11,BbsR_S11,BaB_A11,BaG_A11,BaR_A11,T_S11,U_S11,P_S11,T1_A11
2016-05-26T00:00:00Z,0000380,20000600,,,,,,,,,,26.0,01.3,0651.9,34.6
2016-05-26T00:01:00Z,0000380,20000600,,,,,,,,,,26.0,01.3,0651.9,34.6
2016-05-26T00:02:00Z,0000380,20000600,,,,,,,,,,26.0,01.3,0651.9,34.6
2016-05-26T00:03:00Z,0000380,60000600,,,,,,,,,,26.1,01.3,0651.9,34.6
2016-05-26T00:04:00Z,0000380,41000600,0006.35,0004.20,0002.93,0000.91,0000.40,0000.71,0000.25,0000.45,0000.14,26.1,01.2,0652.7,34.6
2016-05-26T00:05:00Z,0000380,01000600,0007.96,0004.27,0001.95,0000.57,0000.35,0000.15,0000.54,0000.38,-000.23,26.0,01.2,0652.8,34.6
2016-05-26T00:06:00Z,0000380,01000600,0007.11,0004.47,0002.32,0000.18,0000.29,0000.31,0000.33,0000.34,0001.05,26.0,01.2,0652.8,34.6
2016-05-26T00:07:00Z,0000380,01000600,0007.18,0004.34,0001.70,0000.87,-000.13,0000.65,0000.23,0000.31,0000.10,26.1,01.3,0652.8,34.6
2016-05-26T00:08:00Z,0000380,01000600,0006.86,0004.60,0002.01,0000.89,0000.37,0000.36,0000.10,0000.25,0000.16,26.0,01.2,0652.8,34.6
2016-05-26T00:09:00Z,0000380,01000600,0006.60,0004.78,0001.84,0000.08,0000.21,0000.00,0000.22,0000.29,0000.40,26.0,01.2,0652.8,34.6
2016-05-26T00:10:00Z,0000380,01000600,0006.34,0004.52,0002.28,0000.57,0000.24,0000.66,0000.24,0000.14,0000.02,26.0,01.4,0652.8,34.6
2016-05-26T00:11:00Z,0000380,01000600,0006.48,0004.73,0002.01,0000.84,-000.08,0000.55,0000.23,0000.52,0000.05,26.0,01.2,0652.8,34.6
2016-05-26T00:12:00Z,0000380,01000600,0007.78,0004.66,0002.42,0000.74,0000.42,0000.60,0000.32,0000.03,0000.22,26.1,01.2,0652.8,34.6
2016-05-26T00:13:00Z,0000380,01000600,0006.25,0004.50,0002.27,0000.34,-000.06,0000.45,0000.21,0000.16,0000.16,26.1,01.2,0652.8,34.6
2016-05-26T00:14:00Z,0000380,01000600,0007.72,0004.79,0002.21,0000.44,0000.52,0000.50,0000.45,0000.30,0000.58,26.1,01.2,0652.8,34.6
2016-05-26T00:15:00Z,0000380,01000600,0005.99,0004.68,0002.43,0000.50,0000.27,0000.28,0000.51,0000.45,0000.26,26.2,01.3,0652.7,34.7
2016-05-26T00:16:00Z,0000380,01000600,0007.10,0005.06,0002.23,0000.61,0000.82,0000.36,0000.30,0000.34,0000.11,26.2,01.3,0652.7,34.7
2016-05-26T00:17:00Z,0000380,01000600,0006.90,0004.40,0002.51,0000.83,0000.19,0000.66,0000.63,0000.39,0000.24,26.2,01.3,0652.8,34.7
2016-05-26T00:18:00Z,0000380,01000600,0006.74,0004.82,0002.10,0001.18,0000.69,0000.65,0000.08,0000.41,0000.32,26.3,01.3,0652.8,34.7
2016-05-26T00:19:00Z,0000380,01000600,0007.38,0004.82,0002.48,0000.42,0000.27,0000.23,0000.59,0000.07,0000.13,26.3,01.3,0652.7,34.7
2016-05-26T00:20:00Z,0000380,01000600,0007.19,0004.87,0002.32,0000.40,0001.08,0000.26,0000.41,0000.32,0000.28,26.3,01.2,0652.8,34.7
2016-05-26T00:21:00Z,0000380,01000600,0008.50,0004.92,0002.21,-000.06,0000.43,0000.49,0000.32,0000.40,0000.11,26.2,01.2,0652.8,34.7
2016-05-26T00:22:00Z,0000380,01000600,0007.17,0004.31,0002.13,0001.05,0000.64,0000.34,0000.33,0000.40,-000.03,26.2,01.3,0652.7,34.7
2016-05-26T00:23:00Z,0000380,01000600,0007.43,0004.29,0002.55,0000.16,0000.11,0000.31,0000.33,0000.37,0000.70,26.2,01.3,0652.7,34.7
2016-05-26T00:24:00Z,0000380,01000600,0006.93,0004.67,0002.03,0001.41,0000.23,0000.42,0000.17,0000.32,0000.43,26.2,01.2,0652.7,34.7
2016-05-26T00:25:00Z,0000380,01000600,0007.05,0004.29,0002.42,0000.44,0000.37,0000.39,0000.29,0000.03,0000.16,26.2,01.3,0652.7,34.7
2016-05-26T00:26:00Z,0000380,01000600,0006.58,0004.14,0002.68,0000.55,-000.26,0000.40,0000.67,0000.29,0000.02,26.2,01.2,0652.7,34.7
2016-05-26T00:27:00Z,0000380,01000600,0007.66,0004.11,0002.31,0000.45,-000.37,0000.37,0000.01,0000.14,0000.24,26.2,01.2,0652.7,34.7
2016-05-26T00:28:00Z,0000380,01000600,0006.82,0004.56,0002.41,0000.95,0000.39,0000.18,0000.08,0000.18,0000.37,26.2,01.3,0652.7,34.7
2016-05-26T00:29:00Z,0000380,01000600,0007.81,0005.48,0002.28,0000.31,0000.48,0000.62,0000.31,0000.43,0000.31,26.2,01.2,0652.7,34.7
2016-05-26T00:30:00Z,0000380,01000600,0006.67,0004.28,0002.28,0000.37,0000.35,0000.11,0000.55,0000.44,-000.05,26.3,01.3,0652.7,34.6
2016-05-26T00:31:00Z,0000380,01000600,0006.38,0004.51,0002.30,0000.70,0000.13,0000.55,0000.12,0000.10,0000.35,26.3,01.2,0652.7,34.6
2016-05-26T00:32:00Z,0000380,01000600,0006.29,0004.63,0002.74,-000.32,0000.42,0000.42,0000.43,0000.51,0000.47,26.3,01.2,0652.7,34.6
2016-05-26T00:33:00Z,0000380,01000600,0007.82,0004.59,0002.33,0001.05,0000.39,0000.18,0000.17,0000.01,0000.28,26.3,01.1,0652.7,34.6
2016-05-26T00:34:00Z,0000380,01000600,0007.23,0005.02,0002.23,0000.99,0000.58,-000.02,0000.29,0000.30,0000.46,26.3,01.1,0652.7,34.6
2016-05-26T00:35:00Z,0000380,01000600,0006.31,0004.30,0001.92,0000.70,0000.27,0000.53,0000.30,0000.53,-000.13,26.3,01.2,0652.7,34.6
2016-05-26T00:36:00Z,0000380,01000600,0006.13,0004.12,0002.23,0000.40,0000.63,0000.34,0000.39,0000.15,0000.48,26.3,01.1,0652.7,34.6
2016-05-26T00:37:00Z,0000380,01000600,0006.84,0004.61,0002.39,0000.39,-000.02,0000.58,0000.61,0000.49,0000.19,26.3,01.1,0652.6,34.6
2016-05-26T00:38:00Z,0000380,01000600,0007.44,0004.91,0001.81,0000.37,0000.29,0000.58,0000.17,0000.28,0000.07,26.3,01.1,0652.7,34.6
2016-05-26T00:39:00Z,0000380,01000600,0006.90,0004.65,0001.89,0000.28,0000.31,0000.29,0000.25,0000.28,0000.32,26.3,01.1,0652.6,34.6
2016-05-26T00:40:00Z,0000380,01000600,0006.54,0005.13,0002.01,0000.97,0000.47,0000.16,0000.39,0000.46,0000.24,26.3,01.1,0652.7,34.6
2016-05-26T00:41:00Z,0000380,01000600,0007.74,0005.40,0002.14,0000.53,0000.08,0001.02,0000.30,0000.09,0000.29,26.3,01.2,0652.6,34.6
2016-05-26T00:42:00Z,0000380,01000600,0006.80,0004.22,0002.30,0000.74,0000.34,0000.63,0000.63,0000.39,0000.39,26.3,01.1,0652.7,34.6
2016-05-26T00:43:00Z,0000380,01000600,0006.67,0004.38,0002.03,0000.15,0000.44,0000.37,0000.18,0000.27,0000.01,26.3,01.2,0652.6,34.6
2016-05-26T00:44:00Z,0000380,01000600,0006.71,0004.73,0002.24,0001.18,0000.35,0000.55,,,,26.3,01.2,0652.6,34.6
2016-05-26T00:45:00Z,0000380,01000600,0006.15,0004.09,0002.02,0000.63,0000.23,0000.52,,,,26.3,01.2,0652.6,34.6
2016-05-26T00:46:00Z,0000380,01000600,0005.92,0004.34,0002.25,0000.68,0000.50,0000.26,0000.21,0000.17,0000.12,26.3,01.2,0652.6,34.6
2016-05-26T00:47:00Z,0000380,01000600,0007.23,0004.78,0002.23,0000.10,0000.37,0000.79,0000.35,0000.48,0000.29,26.3,01.2,0652.6,34.6
2016-05-26T00:48:00Z,0000380,01000600,0006.22,0004.77,0002.50,0000.74,0000.24,0000.53,0000.72,0000.39,0000.48,26.3,01.3,0652.6,34.6
2016-05-26T00:49:00Z,0000380,01000600,0006.97,0004.78,0002.35,0001.04,0000.34,0000.70,0000.28,0000.40,0000.58,26.3,01.3,0652.6,34.6
2016-05-26T00:50:00Z,0000380,01000600,0007.87,0004.75,0002.40,0000.99,-000.02,0000.53,0000.27,0000.34,0000.12,26.3,01.4,0652.6,34.6
2016-05-26T00:51:00Z,0000380,01000600,0006.75,0004.18,0002.38,0001.15,0000.39,0000.36,0000.55,0000.47,0000.14,26.3,01.4,0652.6,34.6
2016-05-26T00:52:00Z,0000380,01000600,0007.97,0004.77,0002.10,0000.40,0000.23,0000.32,0000.31,0000.28,0000.25,26.3,01.3,0652.6,34.6
2016-05-26T00:53:00Z,0000380,00000600,0009.07,0005.94,0002.79,0000.58,0000.84,0000.16,0000.56,0000.45,0000.44,26.3,01.4,0652.6,34.6
2016-05-26T00:54:00Z,0000380,00000600,0008.07,0006.07,0002.59,0000.47,0000.29,0000.53,0000.41,0000.28,0000.40,26.3,01.5,0652.6,34.6
2016-05-26T00:55:00Z,0000380,00000600,0006.82,0005.62,0002.51,0000.55,0000.45,0000.13,0000.52,0000.43,0000.38,26.3,01.5,0652.6,34.6
2016-05-26T00:56:00Z,0000380,00000600,0007.37,0005.78,0002.80,0000.47,0000.45,0000.60,0000.34,0000.32,0000.19,26.3,01.5,0652.6,34.6
2016-05-26T00:57:00Z,0000380,40000600,,,,,,,,,,,,0652.5,34.6
2016-05-26T00:58:00Z,0000380,60000600,,,,,,,,,,26.2,01.3,0651.7,34.6
2016-05-26T00:59:00Z,0000380,20000600,,,,,,,,,,26.2,01.3,0651.7,34.6
2016-05-26T01:00:00Z,0000380,20000600,,,,,,,,,,26.2,01.3,0651.7,34.5
2016-05-26T01:01:00Z,0000380,20000600,,,,,,,,,,26.2,01.3,0651.7,34.5
2016-05-26T01:02:00Z,0000380,20000600,,,,,,,,,,26.2,01.3,0651.7,34.5
2016-05-26T01:03:00Z,0000380,60000600,,,,,,,,,,26.2,01.3,0651.7,34.5
2016-05-26T01:04:00Z,0000380,40000600,0007.95,0005.56,0002.91,0000.11,0000.63,0000.52,0000.33,0000.46,-000.06,26.3,01.4,0652.5,34.5
2016-05-26T01:05:00Z,0000380,01000600,0007.68,0004.86,0002.92,0000.21,0000.47,0000.50,0000.37,0000.27,0000.15,26.3,01.5,0652.5,34.5
2016-05-26T01:06:00Z,0000380,00000600,0007.88,0004.93,0002.44,0000.92,0000.39,0000.47,0000.45,0000.44,0000.55,26.3,01.5,0652.5,34.5
2016-05-26T01:07:00Z,0000380,00000600,0007.27,0004.82,0002.86,0000.31,0000.55,0000.68,0000.38,0000.27,0000.33,26.3,01.5,0652.5,34.5
2016-05-26T01:08:00Z,0000380,00000600,0007.38,0005.13,0002.18,0000.36,0000.66,0000.58,0000.36,0000.45,0000.23,26.3,01.5,0652.5,34.5
2016-05-26T01:09:00Z,0000380,00000600,0007.38,0004.64,0003.00,0001.13,0000.53,0000.62,0000.50,0000.35,0000.67,26.3,01.5,0652.5,34.5
2016-05-26T01:10:00Z,0000380,00000600,0007.41,0005.68,0002.63,0000.47,0000.27,0000.47,0000.49,0000.25,0000.06,26.3,01.5,0652.5,34.5
2016-05-26T01:11:00Z,0000380,01000600,0007.16,0005.05,0003.08,0000.76,0000.44,0000.34,0000.40,0000.50,0000.07,26.3,01.4,0652.5,34.5
2016-05-26T01:12:00Z,0000380,00000600,0008.19,0005.76,0003.23,0000.76,0000.61,0000.66,0000.17,0000.32,0000.26,26.3,01.4,0652.5,34.5
2016-05-26T01:13:00Z,0000380,00000600,0007.63,0004.93,0002.98,0001.23,0000.95,0000.32,0000.54,0000.43,0000.39,26.3,01.5,0652.5,34.5
2016-05-26T01:14:00Z,0000380,01000600,0007.47,0005.56,0003.04,0000.58,0000.50,0000.70,0000.61,0000.30,0000.37,26.3,01.4,0652.5,34.5
2016-05-26T01:15:00Z,0000380,00000600,0008.56,0005.37,0002.86,0000.16,0000.40,0000.11,0000.36,0000.57,0000.11,26.3,01.4,0652.5,34.6
2016-05-26T01:16:00Z,0000380,01000600,0007.38,0005.25,0002.78,0001.15,0000.64,0000.73,0000.48,0000.28,0000.47,26.3,01.5,0652.5,34.6
2016-05-26T01:17:00Z,0000380,01000600,0008.02,0004.51,0003.07,0000.40,0000.66,0000.44,0000.24,0000.39,0000.36,26.3,01.4,0652.4,34.6
2016-05-26T01:18:00Z,0000380,01000600,0007.86,0005.20,0002.84,0000.52,0000.90,0000.62,0000.56,0000.35,0000.02,26.3,01.4,0652.4,34.6
2016-05-26T01:19:00Z,0000380,01000600,0007.99,0005.27,0003.31,0001.25,0000.61,0000.88,0000.36,0000.53,0000.54,26.3,01.4,0652.4,34.6
2016-05-26T01:20:00Z,0000380,00000600,0008.01,0005.43,0002.96,0000.52,0000.73,0000.81,0000.53,0000.25,0000.11,26.3,01.4,0652.4,34.6
2016-05-26T01:21:00Z,0000388,01000608,0008.54,0005.68,0002.99,0000.08,0000.50,0000.32,0000.35,0000.36,0000.25,26.3,01.3,0652.4,34.6
2016-05-26T01:22:00Z,0000388,01000608,0007.21,0005.44,0002.78,0000.57,0001.02,0000.53,0000.37,0000.21,0000.32,26.3,01.4,0652.4,34.6
2016-05-26T01:23:00Z,0000388,00000608,0007.54,0004.16,0002.73,-000.03,0000.53,0000.58,0000.44,0000.47,0000.36,26.3,01.4,0652.4,34.6
2016-05-26T01:24:00Z,0000388,01000608,0008.54,0005.05,0002.71,0000.84,0000.69,0000.52,0000.46,0000.35,0000.20,26.3,01.4,0652.4,34.6
2016-05-26T01:25:00Z,0000388,01000608,0007.67,0004.62,0003.06,0000.71,0000.50,0000.53,0000.23,0000.48,0000.41,26.3,01.3,0652.4,34.6
2016-05-26T01:26:00Z,0000388,01000608,0007.37,0005.49,0002.98,0000.66,0000.40,0000.92,0000.39,0000.30,0000.02,26.3,01.4,0652.4,34.6
2016-05-26T01:27:00Z,0000388,00000608,0008.05,0005.29,0002.94,0000.34,0000.73,0000.68,0000.42,0000.18,0000.73,26.3,01.3,0652.4,34.6
2016-05-26T01:28:00Z,0000388,01000608,0007.22,0004.67,0002.88,0000.96,0000.61,0000.39,0000.46,0000.42,0000.27,26.3,01.3,0652.4,34.6
2016-05-26T01:29:00Z,0000388,01000608,0007.76,0005.61,0002.75,0000.73,0000.55,0000.63,0000.46,0000.32,0000.11,26.3,01.3,0652.4,34.6
2016-05-26T01:30:00Z,0000388,01000608,0007.10,0004.57,0002.63,0000.47,0000.55,0000.50,0000.29,0000.38,-000.03,26.3,01.2,0652.4,34.5
2016-05-26T01:31:00Z,0000388,01000608,0007.92,0005.33,0002.75,0000.57,0001.21,0000.83,0000.38,0000.40,0000.41,26.3,01.2,0652.4,34.5
2016-05-26T01:32:00Z,0000388,01000608,0007.73,0005.23,0002.51,0000.32,0000.06,0000.83,0000.38,0000.35,0000.36,26.3,01.2,0652.4,34.5
2016-05-26T01:33:00Z,0000388,01000608,0007.67,0004.24,0003.13,0000.79,0000.48,0001.05,0000.40,0000.43,0000.03,26.3,01.2,0652.4,34.5
2016-05-26T01:34:00Z,0000388,01000608,0008.64,0005.07,0002.97,0000.84,0000.81,0000.66,0000.49,0000.32,0000.73,26.3,01.3,0652.4,34.5
2016-05-26T01:35:00Z,0000388,01000608,0007.37,0004.71,0003.01,0000.68,0000.44,0000.83,0000.39,0000.38,0000.08,26.3,01.3,0652.4,34.5
2016-05-26T01:36:00Z,0000388,01000608,0006.87,0005.49,0002.63,0000.34,0000.64,0000.94,0000.42,0000.38,0000.41,26.3,01.3,0652.4,34.5
2016-05-26T01:37:00Z,0000388,01000608,0008.71,0005.70,0003.13,0001.10,0000.50,0000.99,0000.43,0000.25,-000.05,26.3,01.2,0652.3,34.5
2016-05-26T01:38:00Z,0000388,01000608,0008.25,0005.45,0003.08,0000.34,0000.76,0000.86,0000.40,0000.52,0000.32,26.3,01.1,0652.3,34.5
2016-05-26T01:39:00Z,0000388,01000608,0007.77,0004.47,0003.01,0000.37,0000.94,0000.19,0000.25,0000.20,0000.50,26.3,01.2,0652.3,34.5
2016-05-26T01:40:00Z,0000388,01000608,0007.04,0005.50,0002.89,0000.66,0000.24,0000.83,0000.46,0000.52,0000.26,26.3,01.2,0652.3,34.5
2016-05-26T01:41:00Z,0000388,01000608,0007.54,0005.43,0002.86,0001.07,0000.47,0000.81,0000.54,0000.35,0000.33,26.3,01.1,0652.3,34.5
2016-05-26T01:42:00Z,0000388,01000608,0006.88,0005.17,0002.83,0000.70,0000.79,0000.49,0000.47,0000.33,0000.47,26.3,01.1,0652.3,34.5
2016-05-26T01:43:00Z,0000388,01000608,0008.60,0005.10,0002.90,0000.37,0000.55,0000.83,0000.29,0000.36,0000.16,26.3,01.1,0652.3,34.5
2016-05-26T01:44:00Z,0000388,01000608,0007.55,0004.96,0003.37,0000.55,0000.76,0000.66,0000.47,0000.28,0000.30,26.3,01.1,0652.3,34.5
2016-05-26T01:45:00Z,0000388,01000608,0007.56,0004.45,0003.08,0001.00,0000.65,0000.88,0000.52,0000.52,0000.32,26.3,01.1,0652.3,34.5
2016-05-26T01:46:00Z,0000388,01000608,0006.50,0004.59,0002.98,0000.21,0000.61,0000.57,0000.28,0000.22,-000.43,26.3,01.0,0652.4,34.5
2016-05-26T01:47:00Z,0000388,01000608,0008.34,0004.35,0002.71,0000.15,0000.45,0000.55,0000.35,0000.39,0000.37,26.3,00.8,0652.4,34.5
2016-05-26T01:48:00Z,0000388,01000608,0007.36,0004.51,0003.06,0000.92,0000.55,0000.81,0000.47,0000.37,0000.68,26.3,00.8,0652.4,34.5
2016-05-26T01:49:00Z,0000388,01000608,0007.83,0004.63,0001.97,0000.63,0000.77,0000.39,0000.22,0000.24,0000.16,26.3,00.8,0652.4,34.5
2016-05-26T01:50:00Z,0000388,01000608,0007.87,0004.88,0002.76,0000.62,0000.42,0000.37,0000.35,0000.16,0000.03,26.3,00.6,0652.4,34.5
2016-05-26T01:51:00Z,0000388,01000608,0006.43,0004.69,0002.84,0000.31,0000.76,0000.57,0000.40,0000.47,0000.56,26.3,00.7,0652.4,34.5
2016-05-26T01:52:00Z,0000388,01000608,0007.33,0005.13,0002.41,0000.10,0000.52,0000.55,0000.28,0000.19,0000.10,26.3,00.7,0652.4,34.5
2016-05-26T01:53:00Z,0000388,01000608,0006.82,0004.48,0002.82,0000.39,0000.34,0000.29,0000.46,0000.46,0000.30,26.3,00.7,0652.4,34.5
2016-05-26T01:54:00Z,0000388,01000608,0006.82,0004.23,0002.70,0000.34,0000.48,0000.39,0000.39,0000.42,0000.36,26.3,00.6,0652.4,34.5
2016-05-26T01:55:00Z,0000388,01000608,0006.49,0005.07,0002.90,0000.15,0000.60,0000.63,0000.34,0000.39,0000.06,26.3,00.6,0652.4,34.5
2016-05-26T01:56:00Z,0000388,01010608,0007.57,0004.89,0003.14,0000.97,0000.53,0000.86,0000.50,0000.19,0000.67,26.3,00.7,0652.4,34.5
2016-05-26T01:57:00Z,0000388,40000608,,,,,,,,,,,,0652.4,34.5
2016-05-26T01:58:00Z,0000388,61000608,,,,,,,,,,26.2,01.0,0651.5,34.5
2016-05-26T01:59:00Z,0000388,21000608,,,,,,,,,,26.2,00.8,0651.5,34.5
2016-05-26T02:00:00Z,0000388,21000608,,,,,,,,,,26.2,00.8,0651.5,34.5
2016-05-26T02:01:00Z,0000388,21000608,,,,,,,,,,26.2,00.8,0651.5,34.5
2016-05-26T02:02:00Z,0000388,21000608,,,,,,,,,,26.3,00.8,0651.5,34.5
2016-05-26T02:03:00Z,0000388,61000608,,,,,,,,,,26.3,00.8,0651.5,34.5
2016-05-26T02:04:00Z,0000388,41000608,0008.30,0004.94,0003.45,0000.06,0000.37,0000.66,0000.43,0000.33,0000.35,26.3,00.8,0652.3,34.5
2016-05-26T02:05:00Z,0000388,01000608,0006.78,0005.33,0003.07,0000.29,0000.95,0000.34,0000.44,0000.31,0000.11,26.3,00.9,0652.3,34.5
2016-05-26T02:06:00Z,0000388,01000608,0006.20,0004.80,0003.27,-000.26,0000.18,0000.66,0000.40,0000.30,0000.30,26.3,00.8,0652.3,34.5
2016-05-26T02:07:00Z,0000388,01000608,0008.28,0004.84,0003.40,0000.29,0000.48,0000.18,0000.32,0000.51,0000.18,26.3,00.9,0652.3,34.5
2016-05-26T02:08:00Z,0000388,01000608,0007.28,0004.67,0003.32,0000.68,0000.24,0000.50,0000.56,0000.42,0000.59,26.3,00.9,0652.3,34.5
2016-05-26T02:09:00Z,0000388,01000608,0008.12,0005.28,0002.92,0000.76,0000.47,0000.63,0000.33,0000.19,-000.19,26.3,00.9,0652.3,34.5
2016-05-26T02:10:00Z,0000388,01000608,0006.97,0004.78,0003.04,0000.91,0000.63,0001.09,0000.47,0000.24,0000.43,26.3,00.9,0652.3,34.5
2016-05-26T02:11:00Z,0000388,01000608,0006.64,0005.24,0003.05,0001.07,0000.35,0000.53,0000.25,0000.45,0000.41,26.3,00.8,0652.3,34.5
2016-05-26T02:12:00Z,0000388,01000608,0007.71,0005.03,0002.58,0000.73,0000.60,0000.63,0000.14,0000.28,0000.08,26.3,00.9,0652.3,34.5
2016-05-26T02:13:00Z,0000388,01000608,0006.31,0005.15,0002.73,0000.83,0000.98,0000.02,0000.36,0000.27,0000.47,26.3,00.8,0652.3,34.5
2016-05-26T02:14:00Z,0000388,01000608,0007.73,0005.33,0002.63,0000.05,0000.84,0000.62,0000.52,0000.39,0000.25,26.3,00.8,0652.3,34.5
2016-05-26T02:15:00Z,0000388,01000608,0008.56,0004.98,0003.21,0000.68,0000.10,0000.88,0000.07,0000.26,0000.06,26.4,00.9,0652.3,34.5
2016-05-26T02:16:00Z,0000388,01000608,0006.59,0005.23,0002.71,0000.91,0000.42,0000.37,0000.52,0000.26,0000.54,26.4,00.9,0652.4,34.5
2016-05-26T02:17:00Z,0000388,01000608,0007.57,0005.57,0002.93,0000.37,0000.52,0000.45,0000.57,0000.58,0000.05,26.5,00.8,0652.4,34.5
2016-05-26T02:18:00Z,0000388,01000608,0008.01,0004.82,0002.81,0000.62,0000.92,0000.06,0000.33,0000.36,0000.32,26.5,00.8,0652.4,34.5
2016-05-26T02:19:00Z,0000388,01000608,0007.25,0005.76,0002.43,0001.02,0000.71,0000.21,0000.45,0000.29,0000.43,26.5,00.8,0652.4,34.5
2016-05-26T02:20:00Z,0000388,01000608,0007.14,0004.83,0003.05,0000.32,0000.44,0000.45,0000.38,0000.42,0000.44,26.5,00.8,0652.4,34.5
2016-05-26T02:21:00Z,0000388,01000608,0007.14,0005.36,0003.30,-000.15,0000.55,0000.06,0000.55,0000.34,0000.20,26.5,00.7,0652.4,34.5
2016-05-26T02:22:00Z,0000388,01000608,0007.93,0005.13,0002.61,0000.96,0000.63,0000.26,0000.31,0000.24,-000.01,26.5,00.7,0652.4,34.5
2016-05-26T02:23:00Z,0000388,01000608,0007.40,0005.24,0002.49,0000.76,0000.58,0000.52,0000.21,0000.49,0000.34,26.5,00.7,0652.4,34.5
2016-05-26T02:24:00Z,0000388,01000608,0007.46,0005.28,0003.01,0000.06,0000.56,0000.49,0000.52,0000.30,0000.40,26.5,00.7,0652.4,34.5
2016-05-26T02:25:00Z,0000388,01000608,0007.23,0004.72,0003.35,0000.57,0000.52,0000.81,0000.47,0000.37,0000.40,26.5,00.7,0652.4,34.5
2016-05-26T02:26:00Z,0000388,01000608,0007.42,0004.83,0003.11,0000.39,0000.19,0000.44,0000.23,0000.29,-000.21,26.5,00.8,0652.4,34.5
2016-05-26T02:27:00Z,0000388,01000608,0006.76,0005.08,0003.34,0000.78,0000.44,0000.52,0000.50,0000.46,0000.56,26.5,00.8,0652.4,34.5
2016-05-26T02:28:00Z,0000388,01000608,0007.45,0004.89,0002.75,0000.63,0000.34,0000.49,0000.31,0000.12,0000.03,26.5,00.7,0652.4,34.5
2016-05-26T02:29:00Z,0000388,01000608,0008.23,0004.94,0002.93,0000.76,0000.73,0000.37,0000.27,0000.31,0000.28,26.5,00.6,0652.4,34.5
2016-05-26T02:30:00Z,0000388,01000608,0006.34,0004.84,0003.04,0000.68,0000.81,0000.81,0000.44,0000.35,0000.27,26.4,00.7,0652.4,34.5
2016-05-26T02:31:00Z,0000388,01000608,0006.46,0004.55,0002.83,0000.49,0000.71,0000.58,0000.44,0000.31,0000.42,26.4,00.7,0652.4,34.5
2016-05-26T02:32:00Z,0000388,01000608,0006.67,0004.29,0002.65,0000.13,0000.58,0000.41,0000.42,0000.32,0000.12,26.4,00.7,0652.4,34.5
2016-05-26T02:33:00Z,0000388,01000608,0006.74,0004.76,0002.81,0001.04,0000.50,0000.37,0000.38,0000.32,0000.25,26.3,00.7,0652.4,34.5
2016-05-26T02:34:00Z,0000388,01000608,0005.87,0003.70,0002.31,0000.31,0000.39,0000.21,0000.24,0000.40,0000.11,26.4,00.7,0652.4,34.5
2016-05-26T02:35:00Z,0000388,01000608,0006.36,0004.85,0003.10,0000.37,0000.18,0000.55,0000.32,0000.15,0000.30,26.3,00.7,0652.4,34.5
2016-05-26T02:36:00Z,0000388,01000608,0007.37,0004.08,0002.60,0000.70,0000.50,0000.58,0000.54,0000.58,0000.22,26.3,00.7,0652.4,34.5
2016-05-26T02:37:00Z,0000388,01000608,0006.06,0004.55,0002.39,0000.44,0000.48,0000.55,0000.36,0000.28,0000.52,26.3,00.7,0652.4,34.5
2016-05-26T02:38:00Z,0000388,01000608,0006.07,0003.99,0002.17,0000.36,0000.29,0000.10,0000.56,0000.30,0000.20,26.3,00.7,0652.3,34.5
2016-05-26T02:39:00Z,0000388,01000608,0006.94,0004.52,0002.46,0000.11,0000.55,0000.10,0000.28,0000.53,0000.40,26.3,00.7,0652.3,34.5
2016-05-26T02:40:00Z,0000388,01000608,0007.06,0003.76,0002.48,0000.31,0000.40,0000.16,0000.55,0000.34,0000.61,26.3,00.7,0652.3,34.5
2016-05-26T02:41:00Z,0000388,01000608,0005.90,0003.47,0002.33,0000.31,0000.60,0000.18,0000.25,0000.40,-000.13,26.3,00.7,0652.3,34.5
2016-05-26T02:42:00Z,0000388,01000608,0006.04,0004.26,0002.56,0000.32,0000.16,0000.83,0000.28,0000.26,0000.05,26.3,00.7,0652.3,34.5
2016-05-26T02:43:00Z,0000388,01000608,0006.04,0004.07,0002.13,0000.13,0000.58,0000.16,0000.45,0000.31,0000.41,26.3,00.7,0652.3,34.5
2016-05-26T02:44:00Z,0000388,01000608,0005.83,0003.74,0002.48,0000.45,0000.35,0000.18,0000.60,0000.60,0000.59,26.3,00.7,0652.3,34.5
2016-05-26T02:45:00Z,0000388,01000608,0004.84,0004.49,0002.68,0000.81,0000.15,0000.54,0000.53,0000.40,0000.54,26.4,00.7,0652.3,34.5
2016-05-26T02:46:00Z,0000388,01000608,0005.48,0004.42,0002.50,0000.70,0000.32,0000.02,0000.50,0000.28,-000.14,26.4,00.7,0652.3,34.5
2016-05-26T02:47:00Z,0000388,01000608,0005.56,0003.81,0002.67,0000.97,0000.58,0000.55,0000.49,0000.46,0000.53,26.5,00.6,0652.3,34.5
2016-05-26T02:48:00Z,0000388,01000608,0006.78,0004.06,0002.77,0000.62,0000.48,0000.42,0000.67,0000.62,0000.58,26.5,00.6,0652.3,34.5
2016-05-26T02:49:00Z,0000388,01000608,0005.36,0003.49,0002.31,0000.63,0000.11,0000.62,0000.54,0000.62,0000.25,26.5,00.6,0652.3,34.5
2016-05-26T02:50:00Z,0000388,01000608,0005.64,0003.85,0002.38,0000.96,0000.31,0000.26,0000.63,0000.63,0000.57,26.5,00.6,0652.3,34.5
2016-05-26T02:51:00Z,0000388,01000608,0006.23,0004.12,0002.63,0000.58,0000.52,0000.08,0000.47,0000.39,0000.19,26.5,00.6,0652.3,34.5
2016-05-26T02:52:00Z,0000388,01000608,0005.40,0003.58,0002.59,0000.03,0000.29,0000.32,0000.48,0000.41,0000.27,26.5,00.6,0652.3,34.5
2016-05-26T02:53:00Z,0000388,01000608,0005.74,0004.36,0002.39,-000.21,0000.23,0000.21,0000.53,0000.42,0000.38,26.5,00.5,0652.3,34.5
2016-05-26T02:54:00Z,0000388,01000608,0005.64,0003.77,0002.75,0000.44,0000.37,0000.63,0000.47,0000.49,0000.16,26.5,00.6,0652.3,34.5
2016-05-26T02:55:00Z,0000388,01000608,0006.00,0003.92,0002.23,0000.66,0000.40,0000.60,0000.45,0000.32,0000.39,26.5,00.6,0652.3,34.5
2016-05-26T02:56:00Z,0000388,01000608,0006.38,0003.83,0002.37,0000.47,0000.32,0000.34,0000.51,0000.38,0000.35,26.5,00.6,0652.2,34.5
2016-05-26T02:57:00Z,0000388,40000608,,,,,,,,,,,,0652.2,34.5
2016-05-26T02:58:00Z,0000388,61000608,,,,,,,,,,26.3,00.8,0651.4,34.5
2016-05-26T02:59:00Z,0000388,21000608,,,,,,,,,,26.3,00.6,0651.4,34.5
2016-05-26T03:00:00Z,0000388,21000608,,,,,,,,,,26.3,00.6,0651.4,34.4
2016-05-26T03:01:00Z,0000388,21000608,,,,,,,,,,26.3,00.6,0651.4,34.4
2016-05-26T03:02:00Z,0000388,21000608,,,,,,,,,,26.3,00.6,0651.4,34.4
2016-05-26T03:03:00Z,0000388,61000608,,,,,,,,,,26.3,00.6,0651.4,34.4
2016-05-26T03:04:00Z,0000388,41000608,0004.47,0003.39,0002.18,0000.75,0000.21,0000.60,0000.75,0000.45,0000.64,26.3,00.6,0652.2,34.4
2016-05-26T03:05:00Z,0000388,01000608,0004.83,0003.60,0001.90,0000.63,0000.10,0000.39,0000.39,0000.56,0000.27,26.3,00.5,0652.2,34.4
2016-05-26T03:06:00Z,0000388,01000608,0004.53,0003.21,0001.93,0001.05,0000.06,0000.54,0000.47,0000.36,0000.51,26.3,00.5,0652.2,34.4
2016-05-26T03:07:00Z,0000388,01000608,0005.40,0003.81,0001.64,0000.84,0000.39,0000.08,0000.46,0000.40,0000.11,26.3,00.5,0652.2,34.4
2016-05-26T03:08:00Z,0000388,01000608,0004.69,0002.56,0001.91,0000.84,-000.11,0000.08,0000.44,0000.47,0000.56,26.3,00.5,0652.2,34.4
2016-05-26T03:09:00Z,0000388,01000608,0004.89,0003.11,0001.71,0000.37,0000.53,0000.16,0000.41,0000.25,0000.11,26.3,00.5,0652.2,34.4
2016-05-26T03:10:00Z,0000388,01000608,0004.99,0003.24,0002.05,0000.84,-000.02,0000.03,0000.48,0000.58,0000.49,26.3,00.5,0652.2,34.4
2016-05-26T03:11:00Z,0000388,01000608,0004.75,0002.58,0001.76,0000.08,0000.10,0000.10,0000.40,0000.17,0000.34,26.3,00.5,0652.2,34.4
2016-05-26T03:12:00Z,0000388,01000608,0004.53,0002.94,0001.37,0000.10,0000.19,0000.15,0000.25,0000.42,0000.08,26.3,00.5,0652.1,34.4